www.pogodaiklimat.ru
ПОГОДА в Банмо

Архив погоды в Банмо (Мьянма)

Время
(UTC), дата
00 17.10
03 17.10
06 17.10
09 17.10
12 17.10
00 18.10
03 18.10
06 18.10
09 18.10
12 18.10
03 19.10
06 19.10
09 19.10
12 19.10
00 20.10
03 20.10
06 20.10
09 20.10
12 20.10
00 21.10
03 21.10
06 21.10
09 21.10
12 21.10
00 22.10
03 22.10
06 22.10
09 22.10
12 22.10
00 23.10
03 23.10
06 23.10
09 23.10
12 23.10
Ветер
(напр.,м/с)
Видим. Явления Облачность Т
(С)
Тd
(С)
f
(%)
Тe
(С)
Тes
(С)
Комфортность P
(гПа)
Po
(гПа)
Тmin
(С)
Tmax
(С)
R
(мм)
R24
(мм)
S
(см)
штиль 0 5000 м 9/6 300 м
[St Ac cuf]
+25.6 +23.3 87 +34 +34 очень
душно
1008.8 995.8 +24.5
штиль 0 7000 м 9/6 300 м
[St Ac cuf]
+26.8 +24.0 85 +37 +39 очень
душно
1011.2 998.3
СЗ 2 7000 м 10/6 300 м
[St Ac cuf]
+29.0 +24.8 78 +41 +43 опасность
перегрева
1011.3 998.5
СЗ 3 10 км 3/1 300 м
[Cu med, cong Ac trans]
+31.8 +26.5 74 +49 +52 опасность
перегрева
1008.4 995.8
штиль 0 5000 м 3/1 300 м
[Cu med, cong Ac trans]
+28.8 +24.8 79 +41 +41 опасность
перегрева
1007.4 994.6 +32.0
штиль 0 6000 м 1/1 300 м
[Cu hum]
+23.3 +21.4 89 +31 +31 очень
душно
1009.9 997.0 +23.0
штиль 0 8000 м ясно +28.7 +24.8 79 +41 +52 опасность
перегрева
1010.9 998.3
СЗ 1 10 км ясно +33.8 +25.7 63 +49 +66 опасность
перегрева
1008.7 996.2
СВ 2 10 км 1/1 300 м
[Cu med, cong]
+35.2 +23.7 51 +46 +50 опасность
перегрева
1006.8 994.3
штиль 0 5000 м 6/3 300 м
[Cu med, cong Ac cuf]
+31.3 +25.4 71 +46 +46 опасность
перегрева
1007.2 994.6 +35.8
штиль 0 8000 м 6/3 300 м
[Cu med, cong Ac trans]
+29.0 +25.9 83 +43 +49 опасность
перегрева
1012.9 1000.1
штиль 0 8000 м 8/3 300 м
[Cu med, cong Ac lent]
+34.3 +24.0 55 +46 +52 опасность
перегрева
1010.8 998.1
штиль 0 10 км 3/1 600 м
[Cu med, cong Ac trans]
+34.7 +26.6 63 +52 +57 опасность
перегрева
1007.8 995.3
штиль 0 5000 м 3/3 300 м
[Cu med, cong]
+30.3 +25.3 75 +44 +44 опасность
перегрева
1007.9 995.2 +35.5
штиль 0 5000 м {дождь} 10/6 300 м
[Frnb Ac cuf]
+24.3 +24.3 100 +34 +34 очень
душно
1011.8 998.8 +22.6 57
штиль 0 7000 м {дождь} 10/6 300 м
[Frnb Ac cuf]
+25.4 +25.4 100 +37 +38 очень
душно
1013.5 1000.6
штиль 0 7000 м 8/4 300 м
[Cb calv Ac cuf]
+31.0 +26.7 78 +48 +54 опасность
перегрева
1010.5 997.8
штиль 0 7000 м {дождь} 8/5 300 м
[St Ac cuf]
+26.8 +26.8 100 +42 +43 опасность
перегрева
1008.3 995.5
штиль 0 5000 м {дождь} 5/3 300 м
[St Ac cuf]
+26.6 +26.6 100 +41 +41 опасность
перегрева
1007.4 994.5 +32.0 15
штиль 0 5000 м 9/6 300 м
[Frnb Ac cuf]
+25.3 +25.3 100 +36 +36 очень
душно
1007.6 994.7 +24.0
штиль 0 7000 м 10/6 300 м
[Frnb Ac cuf]
+26.4 +24.6 90 +37 +39 очень
душно
1009.5 996.7
штиль 0 7000 м 9/6 300 м
[St Ac cuf]
+28.6 +25.9 85 +43 +46 опасность
перегрева
1008.4 995.7
СЗ 1 7000 м 9/5 300 м
[Frnb Ac cuf]
+28.7 +25.9 85 +43 +44 опасность
перегрева
1006.4 993.7
штиль 0 5000 м гроза, ливневой дождь 10/10 300 м
[Cb cap]
+26.8 +26.8 100 +42 +42 опасность
перегрева
1006.3 993.4 +29.2 3
штиль 0 5000 м слаб. дождь {гроза} 10/10 300 м
[Frnb]
+24.3 +24.3 100 +34 +34 очень
душно
1008.8 995.8 +24.0 11
штиль 0 7000 м {гроза, дождь} 8/5 300 м
[Frnb Ac cuf]
+27.0 +25.6 92 +40 +43 очень
душно
1011.0 998.1
З 2 7000 м 6/4 300 м
[Cb calv Ac lent]
+28.8 +25.9 84 +43 +49 опасность
перегрева
1010.2 997.5
ЮВ 2 7000 м гроза, ливневой дождь {морось} 10/10 300 м
[Cb cap]
+26.0 +24.6 92 +37 +37 очень
душно
1009.3 996.4
штиль 0 5000 м {гроза, морось} 8/5 300 м
[Frnb Ac cuf]
+25.0 +25.0 100 +36 +36 очень
душно
1008.1 995.2 +30.5 3
штиль 0 5000 м 1/0
[Ci fib]
+21.8 +21.8 100 +28 +28 душно 1011.3 998.1 +21.5
штиль 0 8000 м 5/1 300 м
[Cu med, cong Ac trans]
+26.0 +22.9 83 +35 +42 очень
душно
1013.5 1000.5
штиль 0 8000 м 5/3 300 м
[Cu med, cong Ac cuf]
+29.6 +23.9 71 +41 +51 опасность
перегрева
1011.8 998.8
СВ 1 10 км 1/0 600 м
[Ac trans]
+31.0 +25.4 72 +45 +50 опасность
перегрева
1010.0 997.3
штиль 0 5000 м 1/0
[Ac trans]
+27.8 +25.0 85 +40 +40 очень
душно
1008.9 996.1 +32.5
Местоположение метеостанции Банмо (Мьянма): широта 24.27 долгота 97.20 высота над уровнем моря 113 м.
В архиве по умолчанию представлена погода в Банмо за последнюю неделю. Архивные данные за месяц целиком и за предыдущие месяцы, начиная с января 2011 года, Вы можете получить, выбрав интересующий диапазон дат из раскрывающегося списка и нажав кнопку "Найти!".
*Определитесь, кто Вы:
Внимание! Время в таблицах - всемирное. Для получения местного времени необходимо прибавить поправку, которая равна 6.5 ч.
Смотрите также архив погоды в соседних городах и на ближайших метеорологических станциях:
Партнеры нашего сайта:      
Пояснения к столбцам:
  • Ветер - указаны скорость ветра в м/с - средняя за 10 мин, порывы в срок и между сроками (в фигурных скобках) и направление, откуда дует ветер: С - северный,
  • СВ - северо-восточный, В - восточный, ЮВ - юго-восточный, Ю - южный, ЮЗ - юго-западный, З - западный, СЗ - северо-западный.
  • Видимость - горизонтальная дальность видимости в метрах или километрах. При видимости от 1 до 10 км при отсутствии осадков обычно наблюдается дымка, при ухудшении видимости до 1 км и менее - туман. В сухую погоду видимость может ухудшаться дымом, пылью или мглою.
  • Явления - указаны атмосферные явления, наблюдавшиеся в срок или в последний час перед сроком; фигурными скобками обозначены явления, наблюдавшиеся между сроками (за 1-3 часа до срока); квадратными скобками обозначены град или гололедные отложения с указанием их диаметра в мм.
  • Облачность - указаны через наклонную черту общая и нижняя облачность в баллах и высота нижней границы облаков в метрах; квадратными скобками обозначены формы облаков: Ci - перистые, Cs - перисто-слоистые, Cc - перисто-кучевые, Ac - высококучевые, As - высокослоистые, Sc - слоисто-кучевые, Ns - слоисто-дождевые, Cu - кучевые, Cb - кучево-дождевые. Подробнее классификацию облаков см. в Атласе облаков (PDF).
  • T - Температура воздуха - температура, измеренная на высоте 2 м над землей.
  • Td - Температура точки росы - температура, при понижении до которой содержащийся в воздухе водяной пар достигнет насыщения.
  • f - Относительная влажность воздуха - влажноcть воздуха, измеренная на высоте 2 м над землей.
  • Te - Эффективная температура - температура, которую ощущает одетый по сезону человек в тени. Характеристика душности погоды. При расчете учитывается влияние влажности воздуха и скорости ветра на теплоощущения человека.
  • Tes - Эффективная температура на солнце - температура, которую ощущает человек, с поправкой на солнечный нагрев. Характеристика знойности погоды. Зависит от высоты солнца над горизонтом, облачности и скорости ветра. Ночью, в пасмурную погоду, а также при ветре 12 м/с и более поправка равна нулю.
  • P - Атмосферное давление - приведенное к уровню моря атмосферное давление.
  • Po - Атмосферное давление - измеренное на уровне метеостанции атмосферное давление.
  • Tmin - Минимальная температура - минимум температуры воздуха на высоте 2 м над землей.
  • Tmax - Максимальная температура - максимум температуры воздуха на высоте 2 м над землей.
  • R - Количество осадков - Количество выпавших осадков за период времени, мм. При наведении курсора мыши на число - период времени, за который выпало указанное количество осадков.
  • R24 - Количество осадков - Количество выпавших осадков за 24 часа, мм.
  • S - Снежный покров - Высота снежного покрова, см. При наведении курсора мыши на число - состояние снежного покрова и степень покрытия местности в баллах.